Fremont, MI

5:37 AM EDT on September 17, 2019 (GMT -0400)
Fremont

Weather History for KFFX - July, 2019

Change the Weather History Date:

Wednesday, July 24, 2019

  Actual Average (KMKG) Record (KMKG)
Temperature  
Mean Temperature 64 °F -  
Max Temperature 79 °F 81 °F 93 °F (1964)
Min Temperature 49 °F 62 °F 43 °F (1921)
Degree Days  
Heating Degree Days 1    
Growing Degree Days 14 (Base 50)    
Moisture  
Dew Point 49 °F    
Average Humidity 61    
Maximum Humidity 100    
Minimum Humidity 26    
Precipitation  
Precipitation 0.00 in - - ()
Sea Level Pressure  
Sea Level Pressure 30.14 in    
Wind  
Wind Speed 2 mph (NW)    
Max Wind Speed 12 mph    
Max Gust Speed 16 mph    
Visibility 10 miles    
Events      
Averages and records for this station are not official NWS values.
T = Trace of Precipitation, MM = Missing Value Source: NWS Daily Summary

Daily Weather History Graph

Daily Weather History Graph

Search for Another Location

Airport or City:

Astronomy

Jul. 24, 2019 Rise Set
Actual Time 6:25 AM EDT 9:15 PM EDT
Civil Twilight 5:51 AM EDT 9:48 PM EDT
Nautical Twilight 5:09 AM EDT 10:30 PM EDT
Astronomical Twilight 4:19 AM EDT 11:19 PM EDT
Moon 12:51 AM EDT (7/24) 1:48 PM EDT (7/24)
Length of Visible Light 15h 56m
Length of Day
14h 50m
Waning Gibbous, 54% of the Moon is Illuminated
Jul 24
Waning Gibbous
Jul 24
Last Quarter
Jul 31
New
Aug 7
First Quarter
Aug 15
Full

Hourly Weather History & Observations

Time (EDT) Temp. Dew Point Humidity Pressure Visibility Wind Dir Wind Speed Gust Speed Precip Events Conditions
12:15 AM 55.0 °F 52.7 °F 92% 30.10 in 10.0 mi NW 3.5 mph - N/A   Clear
12:20 AM 54.9 °F 52.7 °F 92% 30.10 in 10.0 mi NNW 3.5 mph - N/A   Clear
12:38 AM 54.5 °F 52.2 °F 92% 30.11 in 10.0 mi NNW 3.5 mph - N/A   Clear
12:56 AM 55.6 °F 50.9 °F 84% 30.11 in 10.0 mi North 3.5 mph - N/A   Clear
1:15 AM 54.5 °F 50.2 °F 85% 30.11 in 10.0 mi Calm Calm - N/A   Clear
1:35 AM 54.7 °F 51.3 °F 88% 30.11 in 10.0 mi Calm Calm - N/A   Clear
1:36 AM 54.7 °F 51.1 °F 88% 30.11 in 10.0 mi Calm Calm - N/A   Clear
1:59 AM 53.6 °F 50.9 °F 91% 30.11 in 10.0 mi Calm Calm - N/A   Clear
2:17 AM 52.9 °F 50.9 °F 93% 30.12 in 10.0 mi Calm Calm - N/A   Clear
2:36 AM 53.1 °F 51.4 °F 94% 30.11 in 10.0 mi NNW 3.5 mph - N/A   Clear
2:55 AM 52.7 °F 51.6 °F 96% 30.11 in 10.0 mi Calm Calm - N/A   Clear
3:15 AM 52.5 °F 51.3 °F 95% 30.12 in 10.0 mi NNW 3.5 mph - N/A   Clear
3:20 AM 52.0 °F 50.9 °F 96% 30.11 in 10.0 mi NNW 3.5 mph - N/A   Clear
3:38 AM 51.4 °F 50.5 °F 97% 30.11 in 10.0 mi NNW 4.6 mph - N/A   Clear
3:56 AM 51.8 °F 51.1 °F 97% 30.11 in 10.0 mi North 3.5 mph - N/A   Clear
4:15 AM 51.4 °F 50.9 °F 98% 30.11 in 10.0 mi Calm Calm - N/A   Clear
4:35 AM 50.2 °F 49.3 °F 97% 30.11 in 10.0 mi Calm Calm - N/A   Clear
4:59 AM 49.8 °F 48.9 °F 97% 30.12 in 10.0 mi Calm Calm - N/A   Clear
5:17 AM 49.3 °F 49.1 °F 99% 30.12 in 10.0 mi Calm Calm - N/A   Clear
5:35 AM 49.5 °F 49.5 °F 100% 30.13 in 10.0 mi Calm Calm - N/A   Clear
5:36 AM 49.6 °F 49.6 °F 100% 30.13 in 10.0 mi Calm Calm - N/A   Clear
5:55 AM 49.6 °F 49.1 °F 98% 30.14 in 10.0 mi Calm Calm - N/A   Clear
6:15 AM 49.1 °F 48.7 °F 99% 30.14 in 10.0 mi Calm Calm - N/A   Clear
6:20 AM 49.3 °F 49.1 °F 99% 30.14 in 10.0 mi Calm Calm - N/A   Clear
6:38 AM 49.1 °F 48.4 °F 97% 30.15 in 10.0 mi Calm Calm - N/A   Clear
6:56 AM 50.2 °F 50.0 °F 99% 30.15 in 10.0 mi Calm Calm - N/A   Clear
7:15 AM 50.9 °F 50.2 °F 97% 30.15 in 10.0 mi Calm Calm - N/A   Clear
7:35 AM 52.7 °F 51.1 °F 94% 30.15 in 10.0 mi Calm Calm - N/A   Clear
7:36 AM 52.7 °F 51.1 °F 94% 30.15 in 10.0 mi Calm Calm - N/A   Clear
7:58 AM 54.7 °F 52.7 °F 93% 30.16 in 10.0 mi Calm Calm - N/A   Clear
8:17 AM 56.5 °F 52.7 °F 87% 30.17 in 10.0 mi Calm Calm - N/A   Clear
8:35 AM 57.9 °F 51.4 °F 79% 30.18 in 10.0 mi NNW 3.5 mph - N/A   Clear
8:55 AM 59.9 °F 51.6 °F 74% 30.18 in 10.0 mi Calm Calm - N/A   Clear
8:56 AM 60.1 °F 51.8 °F 74% 30.18 in 10.0 mi Calm Calm - N/A   Clear
9:15 AM 62.2 °F 51.4 °F 68% 30.18 in 10.0 mi Calm Calm - N/A   Clear
9:20 AM 62.6 °F 51.6 °F 67% 30.18 in 10.0 mi Calm Calm - N/A   Clear
9:38 AM 65.1 °F 50.5 °F 59% 30.19 in 10.0 mi NNW 3.5 mph - N/A   Clear
9:56 AM 67.1 °F 46.8 °F 48% 30.19 in 10.0 mi North 5.8 mph - N/A   Clear
10:15 AM 68.0 °F 44.8 °F 43% 30.19 in 10.0 mi North 3.5 mph - N/A   Clear
10:16 AM 68.2 °F 45.3 °F 44% 30.19 in 10.0 mi NNW 4.6 mph - N/A   Clear
10:35 AM 69.4 °F 46.8 °F 44% 30.19 in 10.0 mi NW 3.5 mph - N/A   Clear
10:36 AM 69.4 °F 46.6 °F 44% 30.19 in 10.0 mi NW 4.6 mph - N/A   Clear
10:59 AM 71.1 °F 46.4 °F 41% 30.18 in 10.0 mi WNW 5.8 mph - N/A   Clear
11:17 AM 71.8 °F 44.6 °F 38% 30.18 in 10.0 mi Calm Calm - N/A   Clear
11:35 AM 72.9 °F 40.8 °F 31% 30.18 in 10.0 mi Calm Calm - N/A   Clear
11:55 AM 72.9 °F 41.5 °F 32% 30.18 in 10.0 mi NNE 4.6 mph - N/A   Clear
12:15 PM 74.5 °F 40.1 °F 29% 30.18 in 10.0 mi NNE 3.5 mph - N/A   Clear
12:20 PM 75.0 °F 40.5 °F 29% 30.18 in 10.0 mi NW 4.6 mph - N/A   Clear
12:38 PM 75.4 °F 41.0 °F 29% 30.18 in 10.0 mi WNW 3.5 mph - N/A   Clear
12:56 PM 75.7 °F 40.6 °F 28% 30.18 in 10.0 mi Calm Calm - N/A   Clear
1:15 PM 76.5 °F 41.7 °F 29% 30.18 in 10.0 mi North 3.5 mph - N/A   Clear
1:16 PM 76.6 °F 41.5 °F 28% 30.17 in 10.0 mi NNW 4.6 mph - N/A   Clear
1:35 PM 76.3 °F 41.9 °F 29% 30.17 in 10.0 mi Calm Calm - N/A   Clear
1:59 PM 77.9 °F 44.8 °F 31% 30.16 in 10.0 mi West 6.9 mph - N/A   Clear
2:17 PM 77.7 °F 44.2 °F 30% 30.15 in 10.0 mi North 4.6 mph - N/A   Clear
2:35 PM 77.5 °F 43.3 °F 30% 30.15 in 10.0 mi Calm Calm - N/A   Clear
2:36 PM 77.9 °F 43.3 °F 29% 30.15 in 10.0 mi Calm Calm - N/A   Clear
2:55 PM 78.6 °F 41.0 °F 26% 30.15 in 10.0 mi Calm Calm - N/A   Clear
2:56 PM 78.4 °F 41.0 °F 26% 30.15 in 10.0 mi Calm Calm - N/A   Clear
3:15 PM 78.6 °F 42.4 °F 28% 30.14 in 10.0 mi Calm Calm - N/A   Clear
3:20 PM 77.9 °F 42.6 °F 28% 30.14 in 10.0 mi Calm Calm - N/A   Clear
3:38 PM 78.8 °F 43.5 °F 29% 30.14 in 10.0 mi NNE 3.5 mph - N/A   Clear
3:56 PM 79.2 °F 44.4 °F 29% 30.13 in 10.0 mi WNW 4.6 mph - N/A   Clear
4:15 PM 79.5 °F 46.0 °F 31% 30.12 in 10.0 mi Calm Calm - N/A   Clear
4:35 PM 79.9 °F 48.0 °F 33% 30.12 in 10.0 mi NNW 3.5 mph - N/A   Scattered Clouds
4:36 PM 79.9 °F 48.4 °F 33% 30.12 in 10.0 mi Calm Calm - N/A   Scattered Clouds
4:59 PM 78.3 °F 50.2 °F 37% 30.12 in 10.0 mi West 9.2 mph 16.1 mph N/A   Mostly Cloudy
5:17 PM 79.5 °F 49.1 °F 34% 30.12 in 10.0 mi WNW 11.5 mph - N/A   Scattered Clouds
5:35 PM 78.8 °F 48.4 °F 34% 30.12 in 10.0 mi WNW 11.5 mph - N/A   Clear
5:55 PM 78.8 °F 48.6 °F 34% 30.12 in 10.0 mi NW 10.4 mph - N/A   Clear
5:56 PM 78.8 °F 48.4 °F 34% 30.12 in 10.0 mi WNW 9.2 mph - N/A   Clear
6:20 PM 77.9 °F 48.7 °F 36% 30.12 in 10.0 mi WNW 8.1 mph - N/A   Clear
6:38 PM 77.2 °F 48.4 °F 36% 30.12 in 10.0 mi WNW 10.4 mph - N/A   Clear
6:56 PM 76.1 °F 47.8 °F 37% 30.12 in 10.0 mi WNW 9.2 mph - N/A   Clear
7:15 PM 74.8 °F 49.8 °F 41% 30.13 in 10.0 mi WNW 5.8 mph - N/A   Clear
7:35 PM 73.9 °F 51.3 °F 45% 30.13 in 10.0 mi West 4.6 mph - N/A   Clear
7:59 PM 72.7 °F 50.0 °F 45% 30.14 in 10.0 mi West 4.6 mph - N/A   Clear
8:17 PM 71.8 °F 50.9 °F 48% 30.13 in 10.0 mi Calm Calm - N/A   Clear
8:35 PM 70.9 °F 50.4 °F 48% 30.12 in 10.0 mi Calm Calm - N/A   Clear
8:36 PM 70.7 °F 50.4 °F 48% 30.12 in 10.0 mi Calm Calm - N/A   Clear
8:55 PM 70.0 °F 50.4 °F 50% 30.13 in 10.0 mi West 3.5 mph - N/A   Clear
9:15 PM 68.7 °F 50.7 °F 53% 30.13 in 10.0 mi Calm Calm - N/A   Clear
9:37 PM 67.5 °F 50.7 °F 55% 30.13 in 10.0 mi WSW 3.5 mph - N/A   Clear
9:55 PM 66.2 °F 52.2 °F 61% 30.14 in 10.0 mi Calm Calm - N/A   Clear
9:56 PM 66.2 °F 51.8 °F 60% 30.14 in 10.0 mi Calm Calm - N/A   Clear
10:15 PM 64.6 °F 52.7 °F 65% 30.14 in 10.0 mi SSW 3.5 mph - N/A   Clear
10:16 PM 64.6 °F 52.7 °F 65% 30.13 in 10.0 mi SSW 3.5 mph - N/A   Clear
10:35 PM 64.4 °F 52.5 °F 65% 30.14 in 10.0 mi Calm Calm - N/A   Clear
10:40 PM 64.4 °F 52.5 °F 65% 30.13 in 10.0 mi Calm Calm - N/A   Clear
10:58 PM 63.5 °F 51.3 °F 64% 30.14 in 10.0 mi Calm Calm - N/A   Clear
11:16 PM 62.6 °F 52.0 °F 68% 30.14 in 10.0 mi Calm Calm - N/A   Clear
11:35 PM 62.2 °F 52.2 °F 70% 30.13 in 10.0 mi Calm Calm - N/A   Clear
11:55 PM 61.0 °F 52.2 °F 73% 30.13 in 7.0 mi Calm Calm - N/A   Clear
11:56 PM 61.0 °F 52.2 °F 73% 30.13 in 7.0 mi Calm Calm - N/A   Clear